This is the latest recevied weather packets stored in our database for station/object OK1UOJ. If no packets are shown the sender has not sent any weather packets the latest 10 day(s).
| Time | Temp. | Humidity | Pressure | Rain* | Wind** | Luminosity | Snow |
|---|---|---|---|---|---|---|---|
| 1777557977 | 16.11° C | 29% | 1030.2 hPa | - | - | - | - |
| 1777557420 | 16.67° C | 27% | 1030.3 hPa | - | - | - | - |
| 1777557142 | 16.11° C | 28% | 1030.4 hPa | - | - | - | - |
| 1777556864 | 16.11° C | 29% | 1030.4 hPa | - | - | - | - |
| 1777556586 | 16.11° C | 26% | 1030.5 hPa | - | - | - | - |
| 1777554922 | 16.11° C | 27% | 1030.6 hPa | - | - | - | - |
| 1777554917 | 16.11° C | 27% | 1030.6 hPa | - | - | - | - |
| 1777554644 | 16.11° C | 28% | 1030.7 hPa | - | - | - | - |
| 1777554639 | 16.11° C | 28% | 1030.7 hPa | - | - | - | - |
| 1777554366 | 15.56° C | 29% | 1030.8 hPa | - | - | - | - |
| 1777554361 | 15.56° C | 29% | 1030.8 hPa | - | - | - | - |
| 1777554088 | 15.56° C | 28% | 1030.9 hPa | - | - | - | - |
| 1777554083 | 15.56° C | 28% | 1030.9 hPa | - | - | - | - |
| 1777553527 | 15.56° C | 30% | 1030.9 hPa | - | - | - | - |
| 1777553249 | 15.56° C | 26% | 1031 hPa | - | - | - | - |
| 1777552971 | 15.56° C | 29% | 1031.1 hPa | - | - | - | - |
| 1777552419 | 15.56° C | 28% | 1031.2 hPa | - | - | - | - |
| 1777552414 | 15.56° C | 28% | 1031.2 hPa | - | - | - | - |
| 1777552136 | 15° C | 29% | 1031.2 hPa | - | - | - | - |
| 1777551863 | 15° C | 28% | 1031.2 hPa | - | - | - | - |
| 1777551858 | 15° C | 28% | 1031.2 hPa | - | - | - | - |
| 1777551307 | 15.56° C | 28% | 1031.2 hPa | - | - | - | - |
| 1777551302 | 15.56° C | 28% | 1031.2 hPa | - | - | - | - |
| 1777550750 | 15.56° C | 32% | 1031.3 hPa | - | - | - | - |
| 1777550746 | 15.56° C | 32% | 1031.3 hPa | - | - | - | - |
* Rain since midnight (hover to see other rain measurements)
** Current wind speed in m/s (hover to see current wind gust speed)